Preview of NWS' New Version of Forecast
This preview is not operational and should not be used for support decisions.

Regional Weather Roundup (RWR)

Issued by National Weather Service (NWS)

                            
000
ASUS45 KBOI 162210
RWRID 

IDAHO REGIONAL WEATHER ROUNDUP
NATIONAL WEATHER SERVICE BOISE ID
400 PM MDT TUE APR 16 2019

NOTE: "FAIR" INDICATES FEW OR NO CLOUDS BELOW 12000 FEET
WITH NO SIGNIFICANT WEATHER AND/OR OBSTRUCTIONS TO VISIBILITY

IDZ012-014-162300-
SOUTHWEST IDAHO

  
CITY           SKY/WX    TMP DP  RH WIND       PRES   REMARKS
BOISE          MOSUNNY   57  36  45 NW15G21   29.97S                  
CALDWELL       PTSUNNY   57  39  51 W10       29.98S                  
MOUNTAIN HOME  MOSUNNY   57  34  42 NW16G26   29.95S                  
$$

IDZ016-017-162300-
SOUTHCENTRAL IDAHO

  
CITY           SKY/WX    TMP DP  RH WIND       PRES   REMARKS
BURLEY         MOSUNNY   53  31  42 W16G28    29.91R                  
JEROME         SUNNY     55  34  45 W24G36    29.93R                  
TWIN FALLS     MOSUNNY   52  34  50 W22G32    29.94R                  
$$

IDZ019>023-162300-
SOUTHEAST IDAHO

  
CITY           SKY/WX    TMP DP  RH WIND       PRES   REMARKS
IDAHO FALLS    CLOUDY    53  37  54 SW22G28   29.85S                  
POCATELLO      CLOUDY    53  35  50 SW23      29.90S                  
REXBURG        LGT RAIN  47  38  71 S12       29.85R                  
$$

IDZ006-010-011-018-031-032-162300-
CENTRAL IDAHO MOUNTAINS

  
CITY           SKY/WX    TMP DP  RH WIND       PRES   REMARKS
MCCALL         PTSUNNY   40  33  76 E3        29.94R                  
HAILEY         MOSUNNY   55  27  33 W13       29.85S                  
STANLEY          N/A     39  25  57 NW13G22   29.94R WCI  31          
SALMON         LGT RAIN  48  38  68 SW9       29.89R                  
CHALLIS        PTSUNNY   57  21  24 NW14      29.85R                  
$$

IDZ002-004-006-007-026-162300-
NORTHERN IDAHO

  
CITY           SKY/WX    TMP DP  RH WIND       PRES   REMARKS
LEWISTON       CLOUDY    57  40  52 S12       29.99R                  
LOWELL           N/A     55  48  77 VRB5      29.99R                  
COEUR D'ALENE  PTSUNNY   54  30  40 SW15      29.95R                  
MULLAN PASS      N/A     37  25  61 VRB5      29.91R WCI  33          
$$